owner,sensor,date,latitude,longitude,vertical_datum,sea_water_practical_salinity,qcFlag 
DISL,ioos:station:DISL:MHPA:1,2010-10-01T00:00:00Z,30.6671,-87.9365,2.99,6.98,1111122 
DISL,ioos:station:DISL:MHPA:1,2010-10-01T00:30:00Z,30.6671,-87.9365,3.131,6.89,1111122 
DISL,ioos:station:DISL:MHPA:1,2010-10-01T01:00:00Z,30.6671,-87.9365,3.324,6.99,1111122 
DISL,ioos:station:DISL:MHPA:1,2010-10-01T01:30:00Z,30.6671,-87.9365,3.438,6.96,1111122 
DISL,ioos:station:DISL:MHPA:1,2010-10-01T02:00:00Z,30.6671,-87.9365,3.595,7.06,1111122 
DISL,ioos:station:DISL:MHPA:1,2010-10-01T02:30:00Z,30.6671,-87.9365,3.706,7.02,1111122 
DISL,ioos:station:DISL:MHPA:1,2010-10-01T03:00:00Z,30.6671,-87.9365,3.827,7.09,1111122 
DISL,ioos:station:DISL:MHPA:1,2010-10-01T03:30:00Z,30.6671,-87.9365,3.915,7.1,1111122 
DISL,ioos:station:DISL:MHPA:1,2010-10-01T04:00:00Z,30.6671,-87.9365,3.972,7.08,1111122 
DISL,ioos:station:DISL:MHPA:1,2010-10-01T04:30:00Z,30.6671,-87.9365,4.064,7.08,1111122 
DISL,ioos:station:DISL:MHPA:1,2010-10-01T05:00:00Z,30.6671,-87.9365,4.09,7.09,1111122 
DISL,ioos:station:DISL:MHPA:1,2010-10-01T05:30:00Z,30.6671,-87.9365,4.127,7.08,1111122 
DISL,ioos:station:DISL:MHPA:1,2010-10-01T06:00:00Z,30.6671,-87.9365,4.192,7.1,1111122 
DISL,ioos:station:DISL:MHPA:1,2010-10-01T06:30:00Z,30.6671,-87.9365,4.276,7.08,1111122 
DISL,ioos:station:DISL:MHPA:1,2010-10-01T07:00:00Z,30.6671,-87.9365,4.266,7.05,1111122 
DISL,ioos:station:DISL:MHPA:1,2010-10-01T07:30:00Z,30.6671,-87.9365,4.333,7.05,1111122 
DISL,ioos:station:DISL:MHPA:1,2010-10-01T08:00:00Z,30.6671,-87.9365,4.33,7.08,1111122 
DISL,ioos:station:DISL:MHPA:1,2010-10-01T08:30:00Z,30.6671,-87.9365,4.327,7.09,1111122 
DISL,ioos:station:DISL:MHPA:1,2010-10-01T09:00:00Z,30.6671,-87.9365,4.366,7.09,1111122 
DISL,ioos:station:DISL:MHPA:1,2010-10-01T09:30:00Z,30.6671,-87.9365,4.369,7.12,1111122 
DISL,ioos:station:DISL:MHPA:1,2010-10-01T10:00:00Z,30.6671,-87.9365,4.362,7.14,1111122 
DISL,ioos:station:DISL:MHPA:1,2010-10-01T10:30:00Z,30.6671,-87.9365,4.311,7.14,1111122 
DISL,ioos:station:DISL:MHPA:1,2010-10-01T11:00:00Z,30.6671,-87.9365,4.241,7.15,1111122 
DISL,ioos:station:DISL:MHPA:1,2010-10-01T11:30:00Z,30.6671,-87.9365,4.139,7.14,1111122 
DISL,ioos:station:DISL:MHPA:1,2010-10-01T12:00:00Z,30.6671,-87.9365,4.028,7.16,1111122 
DISL,ioos:station:DISL:MHPA:1,2010-10-01T12:30:00Z,30.6671,-87.9365,3.897,7.15,1111122 
DISL,ioos:station:DISL:MHPA:1,2010-10-01T13:00:00Z,30.6671,-87.9365,3.778,7.12,1111122 
DISL,ioos:station:DISL:MHPA:1,2010-10-01T13:30:00Z,30.6671,-87.9365,3.674,7.12,1111122 
DISL,ioos:station:DISL:MHPA:1,2010-10-01T14:00:00Z,30.6671,-87.9365,3.579,7.12,1111122 
DISL,ioos:station:DISL:MHPA:1,2010-10-01T14:30:00Z,30.6671,-87.9365,3.484,7.1,1111122 
DISL,ioos:station:DISL:MHPA:1,2010-10-01T15:00:00Z,30.6671,-87.9365,3.38,7.09,1111122 
DISL,ioos:station:DISL:MHPA:1,2010-10-01T15:30:00Z,30.6671,-87.9365,3.299,7.1,1111122 
DISL,ioos:station:DISL:MHPA:1,2010-10-01T16:00:00Z,30.6671,-87.9365,3.231,7.1,1111122 
DISL,ioos:station:DISL:MHPA:1,2010-10-01T16:30:00Z,30.6671,-87.9365,3.156,7.09,1111122 
DISL,ioos:station:DISL:MHPA:1,2010-10-01T17:00:00Z,30.6671,-87.9365,3.098,7.11,1111122 
DISL,ioos:station:DISL:MHPA:1,2010-10-01T17:30:00Z,30.6671,-87.9365,3.033,7.09,1111122 
DISL,ioos:station:DISL:MHPA:1,2010-10-01T18:00:00Z,30.6671,-87.9365,2.928,7.09,1111122 
DISL,ioos:station:DISL:MHPA:1,2010-10-01T18:30:00Z,30.6671,-87.9365,2.833,7.1,1111122 
DISL,ioos:station:DISL:MHPA:1,2010-10-01T19:00:00Z,30.6671,-87.9365,2.714,7.1,1111122 
DISL,ioos:station:DISL:MHPA:1,2010-10-01T19:30:00Z,30.6671,-87.9365,2.601,7.08,1111122 
DISL,ioos:station:DISL:MHPA:1,2010-10-01T20:00:00Z,30.6671,-87.9365,2.528,7.07,1111122 
DISL,ioos:station:DISL:MHPA:1,2010-10-01T20:30:00Z,30.6671,-87.9365,2.493,7.09,1111122 
DISL,ioos:station:DISL:MHPA:1,2010-10-01T21:00:00Z,30.6671,-87.9365,2.462,7.08,1111122 
DISL,ioos:station:DISL:MHPA:1,2010-10-01T21:30:00Z,30.6671,-87.9365,2.421,7.08,1111122 
DISL,ioos:station:DISL:MHPA:1,2010-10-01T22:00:00Z,30.6671,-87.9365,2.401,7.08,1111122 
DISL,ioos:station:DISL:MHPA:1,2010-10-01T22:30:00Z,30.6671,-87.9365,2.407,7.08,1111122 
DISL,ioos:station:DISL:MHPA:1,2010-10-01T23:00:00Z,30.6671,-87.9365,2.42,7.09,1111122 
DISL,ioos:station:DISL:MHPA:1,2010-10-01T23:30:00Z,30.6671,-87.9365,2.474,7.08,1111122 
DISL,ioos:station:DISL:MHPA:1,2010-10-02T00:00:00Z,30.6671,-87.9365,2.489,7.09,1111122 
DISL,ioos:station:DISL:MHPA:1,2010-10-02T00:30:00Z,30.6671,-87.9365,2.532,7.08,1111122 
DISL,ioos:station:DISL:MHPA:1,2010-10-02T01:00:00Z,30.6671,-87.9365,2.621,7.06,1111122 
DISL,ioos:station:DISL:MHPA:1,2010-10-02T01:30:00Z,30.6671,-87.9365,2.703,7.01,1111122 
DISL,ioos:station:DISL:MHPA:1,2010-10-02T02:00:00Z,30.6671,-87.9365,2.765,7.03,1111122 
DISL,ioos:station:DISL:MHPA:1,2010-10-02T02:30:00Z,30.6671,-87.9365,2.838,7.02,1111122 
DISL,ioos:station:DISL:MHPA:1,2010-10-02T03:00:00Z,30.6671,-87.9365,2.923,7.03,1111122 
DISL,ioos:station:DISL:MHPA:1,2010-10-02T03:30:00Z,30.6671,-87.9365,3.02,7.02,1111122 
DISL,ioos:station:DISL:MHPA:1,2010-10-02T04:00:00Z,30.6671,-87.9365,3.1,7.02,1111122 
DISL,ioos:station:DISL:MHPA:1,2010-10-02T04:30:00Z,30.6671,-87.9365,3.214,7.01,1111122 
DISL,ioos:station:DISL:MHPA:1,2010-10-02T05:00:00Z,30.6671,-87.9365,3.306,7.03,1111122 
DISL,ioos:station:DISL:MHPA:1,2010-10-02T05:30:00Z,30.6671,-87.9365,3.387,7.05,1111122 
DISL,ioos:station:DISL:MHPA:1,2010-10-02T06:00:00Z,30.6671,-87.9365,3.441,7.06,1111122 
DISL,ioos:station:DISL:MHPA:1,2010-10-02T06:30:00Z,30.6671,-87.9365,3.47,7.05,1111122 
DISL,ioos:station:DISL:MHPA:1,2010-10-02T07:00:00Z,30.6671,-87.9365,3.515,7.06,1111122 
DISL,ioos:station:DISL:MHPA:1,2010-10-02T07:30:00Z,30.6671,-87.9365,3.579,7.07,1111122 
DISL,ioos:station:DISL:MHPA:1,2010-10-02T08:00:00Z,30.6671,-87.9365,3.59,7.08,1111122 
DISL,ioos:station:DISL:MHPA:1,2010-10-02T08:30:00Z,30.6671,-87.9365,3.668,7.11,1111122 
DISL,ioos:station:DISL:MHPA:1,2010-10-02T09:00:00Z,30.6671,-87.9365,3.714,7.13,1111122 
DISL,ioos:station:DISL:MHPA:1,2010-10-02T09:30:00Z,30.6671,-87.9365,3.766,7.15,1111122 
DISL,ioos:station:DISL:MHPA:1,2010-10-02T10:00:00Z,30.6671,-87.9365,3.858,6.97,1111122 
DISL,ioos:station:DISL:MHPA:1,2010-10-02T10:30:00Z,30.6671,-87.9365,3.941,7.05,1111122 
DISL,ioos:station:DISL:MHPA:1,2010-10-02T11:00:00Z,30.6671,-87.9365,3.992,7.07,1111122 
DISL,ioos:station:DISL:MHPA:1,2010-10-02T11:30:00Z,30.6671,-87.9365,4.011,7.02,1111122 
DISL,ioos:station:DISL:MHPA:1,2010-10-02T12:00:00Z,30.6671,-87.9365,4.026,7.05,1111122 
DISL,ioos:station:DISL:MHPA:1,2010-10-02T12:30:00Z,30.6671,-87.9365,4.039,7.04,1111122 
DISL,ioos:station:DISL:MHPA:1,2010-10-02T13:00:00Z,30.6671,-87.9365,4.053,7.05,1111122 
DISL,ioos:station:DISL:MHPA:1,2010-10-02T13:30:00Z,30.6671,-87.9365,4.022,7.06,1111122 
DISL,ioos:station:DISL:MHPA:1,2010-10-02T14:00:00Z,30.6671,-87.9365,3.958,7.07,1111122 
DISL,ioos:station:DISL:MHPA:1,2010-10-02T14:30:00Z,30.6671,-87.9365,3.91,7.06,1111122 
DISL,ioos:station:DISL:MHPA:1,2010-10-02T15:00:00Z,30.6671,-87.9365,3.865,7.0,1111122 
DISL,ioos:station:DISL:MHPA:1,2010-10-02T15:30:00Z,30.6671,-87.9365,3.805,7.02,1111122 
DISL,ioos:station:DISL:MHPA:1,2010-10-02T16:00:00Z,30.6671,-87.9365,3.747,7.03,1111122 
DISL,ioos:station:DISL:MHPA:1,2010-10-02T16:30:00Z,30.6671,-87.9365,3.662,7.04,1111122 
DISL,ioos:station:DISL:MHPA:1,2010-10-02T17:00:00Z,30.6671,-87.9365,3.541,7.04,1111122 
DISL,ioos:station:DISL:MHPA:1,2010-10-02T17:30:00Z,30.6671,-87.9365,3.432,7.06,1111122 
DISL,ioos:station:DISL:MHPA:1,2010-10-02T18:00:00Z,30.6671,-87.9365,3.324,7.07,1111122 
DISL,ioos:station:DISL:MHPA:1,2010-10-02T18:30:00Z,30.6671,-87.9365,3.228,7.08,1111122 
DISL,ioos:station:DISL:MHPA:1,2010-10-02T19:00:00Z,30.6671,-87.9365,3.143,7.06,1111122 
DISL,ioos:station:DISL:MHPA:1,2010-10-02T19:30:00Z,30.6671,-87.9365,3.032,7.06,1111122 
DISL,ioos:station:DISL:MHPA:1,2010-10-02T20:00:00Z,30.6671,-87.9365,2.911,7.07,1111122 
DISL,ioos:station:DISL:MHPA:1,2010-10-02T20:30:00Z,30.6671,-87.9365,2.828,7.06,1111122 
DISL,ioos:station:DISL:MHPA:1,2010-10-02T21:00:00Z,30.6671,-87.9365,2.744,7.05,1111122 
DISL,ioos:station:DISL:MHPA:1,2010-10-02T21:30:00Z,30.6671,-87.9365,2.671,7.06,1111122 
DISL,ioos:station:DISL:MHPA:1,2010-10-02T22:00:00Z,30.6671,-87.9365,2.608,7.07,1111122 
DISL,ioos:station:DISL:MHPA:1,2010-10-02T22:30:00Z,30.6671,-87.9365,2.531,7.07,1111122 
DISL,ioos:station:DISL:MHPA:1,2010-10-02T23:00:00Z,30.6671,-87.9365,2.486,7.08,1111122 
DISL,ioos:station:DISL:MHPA:1,2010-10-02T23:30:00Z,30.6671,-87.9365,2.445,7.08,1111122 
DISL,ioos:station:DISL:MHPA:1,2010-10-03T00:00:00Z,30.6671,-87.9365,2.438,7.07,1111122 
DISL,ioos:station:DISL:MHPA:1,2010-10-03T00:30:00Z,30.6671,-87.9365,2.452,7.02,1111122 
DISL,ioos:station:DISL:MHPA:1,2010-10-03T01:00:00Z,30.6671,-87.9365,2.499,7.0,1111122 
DISL,ioos:station:DISL:MHPA:1,2010-10-03T01:30:00Z,30.6671,-87.9365,2.556,7.02,1111122 
DISL,ioos:station:DISL:MHPA:1,2010-10-03T02:00:00Z,30.6671,-87.9365,2.62,6.92,1111122 
DISL,ioos:station:DISL:MHPA:1,2010-10-03T02:30:00Z,30.6671,-87.9365,2.738,6.99,1111122 
DISL,ioos:station:DISL:MHPA:1,2010-10-03T03:00:00Z,30.6671,-87.9365,2.858,6.98,1111122 
DISL,ioos:station:DISL:MHPA:1,2010-10-03T03:30:00Z,30.6671,-87.9365,2.946,7.0,1111122 
DISL,ioos:station:DISL:MHPA:1,2010-10-03T04:00:00Z,30.6671,-87.9365,3.024,6.99,1111122 
DISL,ioos:station:DISL:MHPA:1,2010-10-03T04:30:00Z,30.6671,-87.9365,3.115,7.01,1111122 
DISL,ioos:station:DISL:MHPA:1,2010-10-03T05:00:00Z,30.6671,-87.9365,3.163,7.01,1111122 
DISL,ioos:station:DISL:MHPA:1,2010-10-03T05:30:00Z,30.6671,-87.9365,3.201,7.02,1111122 
DISL,ioos:station:DISL:MHPA:1,2010-10-03T06:00:00Z,30.6671,-87.9365,3.224,7.02,1111122 
DISL,ioos:station:DISL:MHPA:1,2010-10-03T06:30:00Z,30.6671,-87.9365,3.214,7.03,1111122 
DISL,ioos:station:DISL:MHPA:1,2010-10-03T07:00:00Z,30.6671,-87.9365,3.187,7.03,1111122 
DISL,ioos:station:DISL:MHPA:1,2010-10-03T07:30:00Z,30.6671,-87.9365,3.154,7.05,1111122 
DISL,ioos:station:DISL:MHPA:1,2010-10-03T08:00:00Z,30.6671,-87.9365,3.135,7.05,1111122 
DISL,ioos:station:DISL:MHPA:1,2010-10-03T08:30:00Z,30.6671,-87.9365,3.128,7.04,1111122 
DISL,ioos:station:DISL:MHPA:1,2010-10-03T09:00:00Z,30.6671,-87.9365,3.135,7.04,1111122 
DISL,ioos:station:DISL:MHPA:1,2010-10-03T09:30:00Z,30.6671,-87.9365,3.114,7.05,1111122 
DISL,ioos:station:DISL:MHPA:1,2010-10-03T10:00:00Z,30.6671,-87.9365,3.032,7.07,1111122 
DISL,ioos:station:DISL:MHPA:1,2010-10-03T10:30:00Z,30.6671,-87.9365,2.959,7.07,1111122 
DISL,ioos:station:DISL:MHPA:1,2010-10-03T11:00:00Z,30.6671,-87.9365,2.884,7.1,1111122 
DISL,ioos:station:DISL:MHPA:1,2010-10-03T11:30:00Z,30.6671,-87.9365,2.828,7.09,1111122 
DISL,ioos:station:DISL:MHPA:1,2010-10-03T12:00:00Z,30.6671,-87.9365,2.815,7.12,1111122 
DISL,ioos:station:DISL:MHPA:1,2010-10-03T12:30:00Z,30.6671,-87.9365,2.828,6.99,1111122 
DISL,ioos:station:DISL:MHPA:1,2010-10-03T13:00:00Z,30.6671,-87.9365,2.821,6.98,1111122 
DISL,ioos:station:DISL:MHPA:1,2010-10-03T13:30:00Z,30.6671,-87.9365,2.81,7.01,1111122 
DISL,ioos:station:DISL:MHPA:1,2010-10-03T14:00:00Z,30.6671,-87.9365,2.805,6.97,1111122 
DISL,ioos:station:DISL:MHPA:1,2010-10-03T14:30:00Z,30.6671,-87.9365,2.839,6.99,1111122 
DISL,ioos:station:DISL:MHPA:1,2010-10-03T15:00:00Z,30.6671,-87.9365,2.877,6.97,1111122 
DISL,ioos:station:DISL:MHPA:1,2010-10-03T15:30:00Z,30.6671,-87.9365,2.89,6.96,1111122 
DISL,ioos:station:DISL:MHPA:1,2010-10-03T16:00:00Z,30.6671,-87.9365,2.904,6.83,1111122 
DISL,ioos:station:DISL:MHPA:1,2010-10-03T16:30:00Z,30.6671,-87.9365,2.943,6.9,1111122 
DISL,ioos:station:DISL:MHPA:1,2010-10-03T17:00:00Z,30.6671,-87.9365,2.937,6.86,1111122 
DISL,ioos:station:DISL:MHPA:1,2010-10-03T17:30:00Z,30.6671,-87.9365,2.926,6.78,1111122 
DISL,ioos:station:DISL:MHPA:1,2010-10-03T18:00:00Z,30.6671,-87.9365,2.846,6.96,1111122 
DISL,ioos:station:DISL:MHPA:1,2010-10-03T18:30:00Z,30.6671,-87.9365,2.766,6.98,1111122 
DISL,ioos:station:DISL:MHPA:1,2010-10-03T19:00:00Z,30.6671,-87.9365,2.69,6.91,1111122 
DISL,ioos:station:DISL:MHPA:1,2010-10-03T19:30:00Z,30.6671,-87.9365,2.642,6.99,1111122 
DISL,ioos:station:DISL:MHPA:1,2010-10-03T20:00:00Z,30.6671,-87.9365,2.578,6.85,1111122 
DISL,ioos:station:DISL:MHPA:1,2010-10-03T20:30:00Z,30.6671,-87.9365,2.512,6.87,1111122 
DISL,ioos:station:DISL:MHPA:1,2010-10-03T21:00:00Z,30.6671,-87.9365,2.468,6.77,1111122 
DISL,ioos:station:DISL:MHPA:1,2010-10-03T21:30:00Z,30.6671,-87.9365,2.419,6.69,1111122 
DISL,ioos:station:DISL:MHPA:1,2010-10-03T22:00:00Z,30.6671,-87.9365,2.364,6.57,1111122 
DISL,ioos:station:DISL:MHPA:1,2010-10-03T22:30:00Z,30.6671,-87.9365,2.287,6.56,1111122 
DISL,ioos:station:DISL:MHPA:1,2010-10-03T23:00:00Z,30.6671,-87.9365,2.21,6.67,1111122 
DISL,ioos:station:DISL:MHPA:1,2010-10-03T23:30:00Z,30.6671,-87.9365,2.148,6.47,1111122 
DISL,ioos:station:DISL:MHPA:1,2010-10-04T00:00:00Z,30.6671,-87.9365,2.116,6.53,1111122 
DISL,ioos:station:DISL:MHPA:1,2010-10-04T00:30:00Z,30.6671,-87.9365,2.099,6.59,1111122 
DISL,ioos:station:DISL:MHPA:1,2010-10-04T01:00:00Z,30.6671,-87.9365,2.092,6.6,1111122 
DISL,ioos:station:DISL:MHPA:1,2010-10-04T01:30:00Z,30.6671,-87.9365,2.027,6.58,1111122 
DISL,ioos:station:DISL:MHPA:1,2010-10-04T02:00:00Z,30.6671,-87.9365,1.959,6.52,1111122 
DISL,ioos:station:DISL:MHPA:1,2010-10-04T02:30:00Z,30.6671,-87.9365,1.911,6.55,1111122 
DISL,ioos:station:DISL:MHPA:1,2010-10-04T03:00:00Z,30.6671,-87.9365,1.908,6.61,1111122 
DISL,ioos:station:DISL:MHPA:1,2010-10-04T03:30:00Z,30.6671,-87.9365,1.953,6.66,1111122 
DISL,ioos:station:DISL:MHPA:1,2010-10-04T04:00:00Z,30.6671,-87.9365,2.066,6.61,1111122 
DISL,ioos:station:DISL:MHPA:1,2010-10-04T04:30:00Z,30.6671,-87.9365,2.14,6.64,1111122 
DISL,ioos:station:DISL:MHPA:1,2010-10-04T05:00:00Z,30.6671,-87.9365,2.122,6.68,1111122 
DISL,ioos:station:DISL:MHPA:1,2010-10-04T05:30:00Z,30.6671,-87.9365,2.068,6.75,1111122 
DISL,ioos:station:DISL:MHPA:1,2010-10-04T06:00:00Z,30.6671,-87.9365,2.018,6.76,1111122 
DISL,ioos:station:DISL:MHPA:1,2010-10-04T06:30:00Z,30.6671,-87.9365,1.986,6.78,1111122 
DISL,ioos:station:DISL:MHPA:1,2010-10-04T07:00:00Z,30.6671,-87.9365,1.976,6.77,1111122 
DISL,ioos:station:DISL:MHPA:1,2010-10-04T07:30:00Z,30.6671,-87.9365,2.02,6.78,1111122 
DISL,ioos:station:DISL:MHPA:1,2010-10-04T08:00:00Z,30.6671,-87.9365,2.112,6.78,1111122 
DISL,ioos:station:DISL:MHPA:1,2010-10-04T08:30:00Z,30.6671,-87.9365,2.187,6.8,1111122 
DISL,ioos:station:DISL:MHPA:1,2010-10-04T09:00:00Z,30.6671,-87.9365,2.223,6.8,1111122 
DISL,ioos:station:DISL:MHPA:1,2010-10-04T09:30:00Z,30.6671,-87.9365,2.334,6.82,1111122 
DISL,ioos:station:DISL:MHPA:1,2010-10-04T10:00:00Z,30.6671,-87.9365,2.46,6.82,1111122 
DISL,ioos:station:DISL:MHPA:1,2010-10-04T10:30:00Z,30.6671,-87.9365,2.492,6.83,1111122 
DISL,ioos:station:DISL:MHPA:1,2010-10-04T11:00:00Z,30.6671,-87.9365,2.537,6.82,1111122 
DISL,ioos:station:DISL:MHPA:1,2010-10-04T11:30:00Z,30.6671,-87.9365,2.693,6.81,1111122 
DISL,ioos:station:DISL:MHPA:1,2010-10-04T12:00:00Z,30.6671,-87.9365,2.826,6.8,1111122 
DISL,ioos:station:DISL:MHPA:1,2010-10-04T12:30:00Z,30.6671,-87.9365,2.894,6.81,1111122 
DISL,ioos:station:DISL:MHPA:1,2010-10-04T13:00:00Z,30.6671,-87.9365,2.972,6.81,1111122 
DISL,ioos:station:DISL:MHPA:1,2010-10-04T13:30:00Z,30.6671,-87.9365,3.097,6.75,1111122 
DISL,ioos:station:DISL:MHPA:1,2010-10-04T14:00:00Z,30.6671,-87.9365,3.219,6.69,1111122 
DISL,ioos:station:DISL:MHPA:1,2010-10-04T14:30:00Z,30.6671,-87.9365,3.253,6.66,1111122 
DISL,ioos:station:DISL:MHPA:1,2010-10-04T15:00:00Z,30.6671,-87.9365,3.247,6.64,1111122 
DISL,ioos:station:DISL:MHPA:1,2010-10-04T15:30:00Z,30.6671,-87.9365,3.335,6.66,1111122 
DISL,ioos:station:DISL:MHPA:1,2010-10-04T16:00:00Z,30.6671,-87.9365,3.425,6.51,1111122 
DISL,ioos:station:DISL:MHPA:1,2010-10-04T16:30:00Z,30.6671,-87.9365,3.316,6.48,1111122 
DISL,ioos:station:DISL:MHPA:1,2010-10-04T17:00:00Z,30.6671,-87.9365,3.215,6.56,1111122 
DISL,ioos:station:DISL:MHPA:1,2010-10-04T17:30:00Z,30.6671,-87.9365,3.22,6.52,1111122 
DISL,ioos:station:DISL:MHPA:1,2010-10-04T18:00:00Z,30.6671,-87.9365,3.138,6.49,1111122 
DISL,ioos:station:DISL:MHPA:1,2010-10-04T18:30:00Z,30.6671,-87.9365,3.04,6.49,1111122 
DISL,ioos:station:DISL:MHPA:1,2010-10-04T19:00:00Z,30.6671,-87.9365,2.96,6.52,1111122 
DISL,ioos:station:DISL:MHPA:1,2010-10-04T19:30:00Z,30.6671,-87.9365,2.86,6.58,1111122 
DISL,ioos:station:DISL:MHPA:1,2010-10-04T20:00:00Z,30.6671,-87.9365,2.761,6.54,1111122 
DISL,ioos:station:DISL:MHPA:1,2010-10-04T20:30:00Z,30.6671,-87.9365,2.664,6.54,1111122 
DISL,ioos:station:DISL:MHPA:1,2010-10-04T21:00:00Z,30.6671,-87.9365,2.577,6.54,1111122 
DISL,ioos:station:DISL:MHPA:1,2010-10-04T21:30:00Z,30.6671,-87.9365,2.504,6.42,1111122 
DISL,ioos:station:DISL:MHPA:1,2010-10-04T22:00:00Z,30.6671,-87.9365,2.416,6.46,1111122 
DISL,ioos:station:DISL:MHPA:1,2010-10-04T22:30:00Z,30.6671,-87.9365,2.339,6.45,1111122 
DISL,ioos:station:DISL:MHPA:1,2010-10-04T23:00:00Z,30.6671,-87.9365,2.257,6.35,1111122 
DISL,ioos:station:DISL:MHPA:1,2010-10-04T23:30:00Z,30.6671,-87.9365,2.182,6.4,1111122 
DISL,ioos:station:DISL:MHPA:1,2010-10-05T00:00:00Z,30.6671,-87.9365,2.146,6.42,1111122 
DISL,ioos:station:DISL:MHPA:1,2010-10-05T00:30:00Z,30.6671,-87.9365,2.137,6.36,1111122 
DISL,ioos:station:DISL:MHPA:1,2010-10-05T01:00:00Z,30.6671,-87.9365,2.115,6.37,1111122 
DISL,ioos:station:DISL:MHPA:1,2010-10-05T01:30:00Z,30.6671,-87.9365,2.079,6.28,1111122 
DISL,ioos:station:DISL:MHPA:1,2010-10-05T02:00:00Z,30.6671,-87.9365,2.034,6.35,1111122 
DISL,ioos:station:DISL:MHPA:1,2010-10-05T02:30:00Z,30.6671,-87.9365,2.024,6.38,1111122 
DISL,ioos:station:DISL:MHPA:1,2010-10-05T03:00:00Z,30.6671,-87.9365,2.024,6.25,1111122 
DISL,ioos:station:DISL:MHPA:1,2010-10-05T03:30:00Z,30.6671,-87.9365,2.091,6.2,1111122 
DISL,ioos:station:DISL:MHPA:1,2010-10-05T04:00:00Z,30.6671,-87.9365,2.178,6.21,1111122 
DISL,ioos:station:DISL:MHPA:1,2010-10-05T04:30:00Z,30.6671,-87.9365,2.218,6.15,1111122 
DISL,ioos:station:DISL:MHPA:1,2010-10-05T05:00:00Z,30.6671,-87.9365,2.26,6.3,1111122 
DISL,ioos:station:DISL:MHPA:1,2010-10-05T05:30:00Z,30.6671,-87.9365,2.321,6.39,1111122 
DISL,ioos:station:DISL:MHPA:1,2010-10-05T06:00:00Z,30.6671,-87.9365,2.342,6.4,1111122 
DISL,ioos:station:DISL:MHPA:1,2010-10-05T06:30:00Z,30.6671,-87.9365,2.347,6.41,1111122 
DISL,ioos:station:DISL:MHPA:1,2010-10-05T07:00:00Z,30.6671,-87.9365,2.319,6.44,1111122 
DISL,ioos:station:DISL:MHPA:1,2010-10-05T07:30:00Z,30.6671,-87.9365,2.303,6.45,1111122 
DISL,ioos:station:DISL:MHPA:1,2010-10-05T08:00:00Z,30.6671,-87.9365,2.333,6.44,1111122 
DISL,ioos:station:DISL:MHPA:1,2010-10-05T08:30:00Z,30.6671,-87.9365,2.353,6.45,1111122 
DISL,ioos:station:DISL:MHPA:1,2010-10-05T09:00:00Z,30.6671,-87.9365,2.32,6.45,1111122 
DISL,ioos:station:DISL:MHPA:1,2010-10-05T09:30:00Z,30.6671,-87.9365,2.282,6.38,1111122 
DISL,ioos:station:DISL:MHPA:1,2010-10-05T10:00:00Z,30.6671,-87.9365,2.307,6.14,1111122 
DISL,ioos:station:DISL:MHPA:1,2010-10-05T10:30:00Z,30.6671,-87.9365,2.396,6.09,1111122 
DISL,ioos:station:DISL:MHPA:1,2010-10-05T11:00:00Z,30.6671,-87.9365,2.479,6.09,1111122 
DISL,ioos:station:DISL:MHPA:1,2010-10-05T11:30:00Z,30.6671,-87.9365,2.463,6.18,1111122 
DISL,ioos:station:DISL:MHPA:1,2010-10-05T12:00:00Z,30.6671,-87.9365,2.529,6.29,1111122 
DISL,ioos:station:DISL:MHPA:1,2010-10-05T12:30:00Z,30.6671,-87.9365,2.624,6.36,1111122 
DISL,ioos:station:DISL:MHPA:1,2010-10-05T13:00:00Z,30.6671,-87.9365,2.725,6.39,1111122 
DISL,ioos:station:DISL:MHPA:1,2010-10-05T13:30:00Z,30.6671,-87.9365,2.796,6.4,1111122 
DISL,ioos:station:DISL:MHPA:1,2010-10-05T14:00:00Z,30.6671,-87.9365,2.89,6.42,1111122 
DISL,ioos:station:DISL:MHPA:1,2010-10-05T14:30:00Z,30.6671,-87.9365,2.941,6.4,1111122 
DISL,ioos:station:DISL:MHPA:1,2010-10-05T15:00:00Z,30.6671,-87.9365,3.01,6.42,1111122 
DISL,ioos:station:DISL:MHPA:1,2010-10-05T15:30:00Z,30.6671,-87.9365,3.12,6.4,1111122 
DISL,ioos:station:DISL:MHPA:1,2010-10-05T16:00:00Z,30.6671,-87.9365,3.164,6.33,1111122 
DISL,ioos:station:DISL:MHPA:1,2010-10-05T16:30:00Z,30.6671,-87.9365,3.164,6.3,1111122 
DISL,ioos:station:DISL:MHPA:1,2010-10-05T17:00:00Z,30.6671,-87.9365,3.2,6.33,1111122 
DISL,ioos:station:DISL:MHPA:1,2010-10-05T17:30:00Z,30.6671,-87.9365,3.235,6.33,1111122 
DISL,ioos:station:DISL:MHPA:1,2010-10-05T18:00:00Z,30.6671,-87.9365,3.244,6.31,1111122 
DISL,ioos:station:DISL:MHPA:1,2010-10-05T18:30:00Z,30.6671,-87.9365,3.191,6.3,1111122 
DISL,ioos:station:DISL:MHPA:1,2010-10-05T19:00:00Z,30.6671,-87.9365,3.123,6.3,1111122 
DISL,ioos:station:DISL:MHPA:1,2010-10-05T19:30:00Z,30.6671,-87.9365,3.061,6.21,1111122 
DISL,ioos:station:DISL:MHPA:1,2010-10-05T20:00:00Z,30.6671,-87.9365,2.989,6.24,1111122 
DISL,ioos:station:DISL:MHPA:1,2010-10-05T20:30:00Z,30.6671,-87.9365,2.925,6.23,1111122 
DISL,ioos:station:DISL:MHPA:1,2010-10-05T21:00:00Z,30.6671,-87.9365,2.832,6.16,1111122 
DISL,ioos:station:DISL:MHPA:1,2010-10-05T21:30:00Z,30.6671,-87.9365,2.775,5.96,1111122 
DISL,ioos:station:DISL:MHPA:1,2010-10-05T22:00:00Z,30.6671,-87.9365,2.688,6.07,1111122 
DISL,ioos:station:DISL:MHPA:1,2010-10-05T22:30:00Z,30.6671,-87.9365,2.597,6.14,1111122 
DISL,ioos:station:DISL:MHPA:1,2010-10-05T23:00:00Z,30.6671,-87.9365,2.532,6.11,1111122 
DISL,ioos:station:DISL:MHPA:1,2010-10-05T23:30:00Z,30.6671,-87.9365,2.488,6.11,1111122 
DISL,ioos:station:DISL:MHPA:1,2010-10-06T00:00:00Z,30.6671,-87.9365,2.482,6.08,1111122 
DISL,ioos:station:DISL:MHPA:1,2010-10-06T00:30:00Z,30.6671,-87.9365,2.528,6.03,1111122 
DISL,ioos:station:DISL:MHPA:1,2010-10-06T01:00:00Z,30.6671,-87.9365,2.569,5.99,1111122 
DISL,ioos:station:DISL:MHPA:1,2010-10-06T01:30:00Z,30.6671,-87.9365,2.628,6.08,1111122 
DISL,ioos:station:DISL:MHPA:1,2010-10-06T02:00:00Z,30.6671,-87.9365,2.728,6.08,1111122 
DISL,ioos:station:DISL:MHPA:1,2010-10-06T02:30:00Z,30.6671,-87.9365,2.772,6.11,1111122 
DISL,ioos:station:DISL:MHPA:1,2010-10-06T03:00:00Z,30.6671,-87.9365,2.777,6.06,1111122 
DISL,ioos:station:DISL:MHPA:1,2010-10-06T03:30:00Z,30.6671,-87.9365,2.801,6.04,1111122 
DISL,ioos:station:DISL:MHPA:1,2010-10-06T04:00:00Z,30.6671,-87.9365,2.82,6.13,1111122 
DISL,ioos:station:DISL:MHPA:1,2010-10-06T04:30:00Z,30.6671,-87.9365,2.818,6.11,1111122 
DISL,ioos:station:DISL:MHPA:1,2010-10-06T05:00:00Z,30.6671,-87.9365,2.889,6.08,1111122 
DISL,ioos:station:DISL:MHPA:1,2010-10-06T05:30:00Z,30.6671,-87.9365,2.89,6.13,1111122 
DISL,ioos:station:DISL:MHPA:1,2010-10-06T06:00:00Z,30.6671,-87.9365,2.94,6.01,1111122 
DISL,ioos:station:DISL:MHPA:1,2010-10-06T06:30:00Z,30.6671,-87.9365,3.05,6.07,1111122 
DISL,ioos:station:DISL:MHPA:1,2010-10-06T07:00:00Z,30.6671,-87.9365,3.047,6.07,1111122 
DISL,ioos:station:DISL:MHPA:1,2010-10-06T07:30:00Z,30.6671,-87.9365,2.932,6.07,1111122 
DISL,ioos:station:DISL:MHPA:1,2010-10-06T08:00:00Z,30.6671,-87.9365,2.881,6.06,1111122 
DISL,ioos:station:DISL:MHPA:1,2010-10-06T08:30:00Z,30.6671,-87.9365,2.823,6.07,1111122 
DISL,ioos:station:DISL:MHPA:1,2010-10-06T09:00:00Z,30.6671,-87.9365,2.721,5.92,1111122 
DISL,ioos:station:DISL:MHPA:1,2010-10-06T09:30:00Z,30.6671,-87.9365,2.655,5.93,1111122 
DISL,ioos:station:DISL:MHPA:1,2010-10-06T10:00:00Z,30.6671,-87.9365,2.627,5.95,1111122 
DISL,ioos:station:DISL:MHPA:1,2010-10-06T10:30:00Z,30.6671,-87.9365,2.564,5.85,1111122 
DISL,ioos:station:DISL:MHPA:1,2010-10-06T11:00:00Z,30.6671,-87.9365,2.54,5.91,1111122 
DISL,ioos:station:DISL:MHPA:1,2010-10-06T11:30:00Z,30.6671,-87.9365,2.548,5.95,1111122 
DISL,ioos:station:DISL:MHPA:1,2010-10-06T12:00:00Z,30.6671,-87.9365,2.62,6.0,1111122 
DISL,ioos:station:DISL:MHPA:1,2010-10-06T12:30:00Z,30.6671,-87.9365,2.703,5.97,1111122 
DISL,ioos:station:DISL:MHPA:1,2010-10-06T13:00:00Z,30.6671,-87.9365,2.766,6.04,1111122 
DISL,ioos:station:DISL:MHPA:1,2010-10-06T13:30:00Z,30.6671,-87.9365,2.836,5.87,1111122 
DISL,ioos:station:DISL:MHPA:1,2010-10-06T14:00:00Z,30.6671,-87.9365,2.881,5.9,1111122 
DISL,ioos:station:DISL:MHPA:1,2010-10-06T14:30:00Z,30.6671,-87.9365,2.923,5.8,1111122 
DISL,ioos:station:DISL:MHPA:1,2010-10-06T15:00:00Z,30.6671,-87.9365,3.035,5.71,1111122 
DISL,ioos:station:DISL:MHPA:1,2010-10-06T15:30:00Z,30.6671,-87.9365,3.177,5.75,1111122 